Temperature
17 17 16 16 15 15 14 14 13 13 13 13 12 12 12 12 12 13 13 13 13 13 13 13 13 13 12 13 13 13 13 13 13 12 12 12 12 12 13 13 13 14 14
16 16 16 15 15 14 14 14 13 13 13 12 12 12 12 12 12 12 13 13 13 13 12 12 12 12 12 12 13 13 13 13 13 12 12 12 12 12 12 13 13 13 13
16 16 16 15 15 14 14 13 13 13 13 12 12 12 12 12 12 12 12 12 12 12 12 12 12 12 12 12 12 12 12 12 12 12 12 12 12 12 12 12 12 12 12
14 15 15 15 15 15 14 13 13 13 12 12 12 12 12 12 12 12 12 12 12 12 12 12 12 12 12 12 12 12 12 12 12 12 12 12 12 12 12 12 11 12 11
12 13 14 14 14 14 14 13 13 12 12 12 12 11 11 11 11 11 11 11 11 11 11 11 11 12 12 12 12 12 12 12 12 12 12 12 11 11 11 11 11 11 11
11 11 12 13 14 14 14 13 13 12 12 12 11 11 11 11 11 11 11 11 11 11 11 11 11 11 11 11 12 12 12 12 12 12 12 11 11 11 11 11 11 11 11
10 10 11 11 12 13 13 13 13 12 12 11 11 11 11 11 11 11 11 11 11 11 11 11 11 11 11 11 11 12 12 12 12 12 11 11 11 11 11 10 10 10 10
9 9 10 10 11 11 11 12 12 12 12 11 11 11 11 11 11 10 10 10 10 11 11 11 11 11 11 11 11 11 11 11 11 11 11 10 10 10 10 10 10 9 9
9 9 9 9 9 10 10 11 11 11 11 11 11 11 11 11 10 10 10 11 11 11 11 11 11 11 11 11 11 11 11 11 10 10 10 10 10 10 10 10 9 9 9
9 9 9 8 8 9 9 10 10 11 11 11 11 11 11 11 10 10 10 11 11 11 11 11 11 11 11 11 11 11 11 10 10 10 10 10 9 9 9 9 9 9 9
9 9 8 8 8 8 9 9 10 10 10 11 11 11 11 11 10 10 10 11 11 11 11 10 10 10 10 10 10 11 10 10 10 10 9 9 9 9 8 8 8 8 8
8 8 8 8 8 8 8 8 9 9 10 10 11 11 11 10 10 10 10 11 11 11 10 10 10 10 10 10 10 10 9 9 9 9 9 9 8 8 8 8 8 8 8
8 8 8 8 8 7 7 8 8 8 9 10 10 11 10 10 10 10 10 10 10 10 10 10 10 9 9 9 9 9 9 9 9 8 8 8 8 8 7 7 7 7 7
7 8 8 8 7 7 7 7 7 8 8 9 10 11 10 10 10 10 10 10 10 10 10 9 9 9 9 9 9 8 8 8 8 8 8 7 7 7 7 7 7 7 7
7 7 7 7 7 7 7 7 7 7 8 9 10 11 11 10 11 10 10 10 10 10 10 9 9 9 9 9 8 8 8 7 7 7 7 7 7 7 7 7 7 6 6
6 6 7 7 7 7 6 7 7 7 8 9 10 11 12 12 11 11 11 11 10 10 10 10 9 9 9 9 8 8 8 7 7 7 7 7 7 7 7 6 6 6 6
5 6 6 7 7 6 6 6 6 7 8 8 9 10 11 11 11 11 11 10 10 10 10 10 9 9 9 9 8 8 8 7 7 7 7 7 7 7 6 6 6 6 6
4 5 6 6 6 6 6 6 6 6 7 8 9 9 10 11 11 10 10 10 10 10 10 10 9 9 9 9 9 8 8 8 7 7 7 7 7 6 6 6 6 6 6
4 5 5 6 6 6 6 6 6 6 7 8 9 9 9 10 10 10 10 10 10 10 10 10 9 9 9 9 9 9 9 8 8 8 7 7 7 7 6 6 6 6 6
4 4 5 5 6 6 6 6 6 7 7 8 8 9 9 9 9 9 10 10 10 10 10 10 10 9 9 9 9 9 9 8 8 8 8 7 7 7 6 6 6 6 6
3 4 5 5 5 6 6 6 6 7 7 8 9 9 10 9 10 10 10 10 10 10 10 10 10 9 9 10 10 9 9 9 9 8 8 8 7 7 7 7 6 6 6
3 4 5 5 5 6 6 6 6 7 8 9 9 9 10 10 10 10 10 10 10 10 10 10 10 10 9 10 10 10 9 9 9 9 8 8 8 8 7 7 7 6 6
3 4 5 5 6 6 6 6 7 8 8 9 10 10 9 10 10 10 11 11 11 10 10 10 10 9 9 10 10 10 10 9 9 9 9 9 8 8 8 8 7 7 7
4 4 5 5 6 6 6 7 7 8 9 9 10 10 10 10 10 11 11 11 11 10 10 10 10 9 10 10 10 10 10 10 9 9 9 9 9 9 8 8 8 8 7
4 5 5 6 6 6 6 7 8 8 9 10 10 10 11 11 11 11 11 11 10 10 10 10 10 9 10 10 10 10 10 10 10 9 9 9 9 9 9 9 9 8 8
5 5 6 6 6 7 7 8 8 9 9 10 11 11 11 11 11 11 11 10 10 10 10 10 9 10 10 10 10 10 10 10 10 10 10 9 9 9 9 9 9 9 8
Wind_Speed
6 7 7 7 7 6 6 6 6 5 5 6 8 8 9 8 7 5 5 4 4 3 3 5 5 4 3 3 3 3 3 4 6 3 3 3 4 6 6 8 10 10 12
8 8 9 9 7 8 8 7 6 5 5 6 6 7 8 7 6 4 3 1 1 2 3 3 3 3 4 3 4 5 5 5 8 7 3 4 5 5 6 8 7 9 10
9 8 9 10 10 10 10 8 6 5 5 5 5 6 6 6 5 4 3 3 4 5 4 4 5 5 6 5 7 8 7 7 6 8 5 3 5 5 6 7 8 7 8
11 10 10 12 12 12 10 8 7 5 4 4 3 4 4 4 4 4 5 6 7 7 7 6 6 6 6 8 9 10 9 9 9 9 7 5 5 4 5 5 6 7 7
13 13 12 12 11 11 10 9 7 6 4 3 2 2 2 3 3 4 5 7 8 9 8 7 7 9 10 9 9 9 10 9 9 9 7 6 4 4 4 3 4 4 6
11 13 14 13 11 11 11 9 8 7 5 3 2 1 2 3 6 7 7 7 8 9 9 8 9 12 15 15 14 11 10 10 9 7 7 7 4 3 3 4 4 4 4
11 11 12 13 12 11 11 10 10 9 7 5 4 4 4 5 8 8 9 7 7 7 7 7 8 9 10 11 13 14 12 11 9 8 9 5 4 2 3 5 5 5 4
12 11 11 11 12 11 10 11 11 8 8 7 6 7 7 7 9 10 11 8 8 7 6 7 8 7 6 10 11 10 9 8 6 6 7 5 3 2 3 3 4 4 3
13 12 11 10 11 11 10 12 11 9 9 8 8 9 9 9 11 12 11 7 8 7 6 6 7 7 8 12 12 11 11 9 10 12 11 10 10 8 5 5 5 6 5
14 13 11 10 10 11 11 11 10 10 11 11 10 10 11 11 13 14 12 8 8 7 6 6 7 8 9 11 11 12 11 7 8 9 10 10 10 11 10 5 4 4 3
14 13 12 11 10 10 10 9 10 12 12 12 11 10 11 12 15 16 14 9 9 8 7 5 5 11 13 12 11 9 11 9 8 9 9 8 8 7 7 6 5 4 4
13 13 13 11 10 10 8 9 9 12 14 13 12 10 8 10 14 15 15 13 12 9 8 6 7 12 14 14 11 12 14 10 8 8 8 7 6 6 6 6 7 8 6
13 13 12 11 10 8 8 9 7 10 12 13 13 13 11 9 11 14 15 16 14 8 8 10 12 14 13 11 12 13 10 8 7 7 7 4 3 3 3 4 5 6 7
13 13 12 10 10 8 7 6 5 7 11 13 14 14 12 11 10 10 9 9 11 10 9 11 12 12 10 10 9 7 6 6 6 6 5 4 3 4 4 4 4 4 6
13 12 11 10 10 9 8 6 6 7 10 13 15 15 16 14 15 18 15 11 11 11 12 7 5 5 5 5 5 5 5 4 5 4 5 5 5 5 4 4 3 4 5
11 11 9 8 8 8 8 8 9 11 14 18 17 17 17 19 21 21 20 19 19 19 13 9 8 7 7 7 6 4 4 4 4 5 5 5 5 5 5 4 4 4 4
12 11 9 8 8 8 7 7 8 9 11 15 17 19 17 20 22 21 19 19 20 20 10 10 9 9 7 7 6 5 4 4 4 5 6 6 5 5 4 4 4 4 3
11 13 11 8 8 8 7 7 7 8 6 7 11 17 19 21 22 21 20 16 11 11 9 11 10 10 8 8 7 6 5 5 4 4 5 5 5 4 4 4 4 4 3
10 8 8 7 7 8 7 7 7 8 7 9 9 11 15 18 18 21 21 11 14 14 11 11 10 10 9 9 8 8 8 7 6 5 5 5 5 4 4 4 4 5 3
8 12 9 6 7 7 7 7 8 8 8 10 14 13 12 11 10 13 12 12 13 13 12 11 10 10 9 9 9 9 8 8 8 6 6 5 5 4 5 5 5 5 4
7 8 10 7 6 7 7 8 8 7 8 11 13 16 20 17 16 16 15 13 13 13 12 11 10 10 9 8 9 10 11 9 9 8 7 6 6 5 4 5 5 5 4
6 6 5 6 6 7 7 8 7 7 10 13 12 13 19 15 15 15 14 14 13 12 12 11 10 10 9 9 10 11 11 10 10 9 8 7 7 6 6 5 6 5 5
5 6 6 6 6 7 7 7 6 6 10 12 13 15 15 13 14 14 14 13 12 11 10 10 10 9 9 9 9 11 12 12 11 11 10 9 8 8 7 7 8 7 7
5 6 6 6 5 6 6 6 5 7 11 13 14 14 15 14 14 14 13 12 11 10 10 10 10 12 13 10 10 12 13 14 14 12 14 12 11 10 9 9 10 10 10
5 5 5 5 5 5 5 5 5 8 11 12 12 13 13 13 12 12 11 11 12 11 11 10 9 10 13 14 12 13 16 17 16 14 13 12 13 12 12 12 11 11 11
5 5 5 5 5 5 5 5 7 9 10 11 11 12 13 13 12 11 11 10 10 10 10 10 11 12 12 13 15 16 16 18 18 17 13 10 12 12 13 12 14 13 12
Wind_Direction
286 263 252 248 243 243 247 256 265 281 300 316 320 321 320 320 318 309 288 265 237 218 200 189 180 172 164 161 153 140 130 122 120 96 54 45 57 68 62 64 67 68 67
300 277 260 253 246 244 247 251 256 272 291 306 316 321 325 329 332 332 336 359 119 120 128 136 142 134 121 116 114 109 107 111 126 121 80 59 63 64 68 63 58 64 68
314 289 270 255 244 242 243 245 247 259 284 304 317 325 328 338 353 11 32 57 83 85 84 87 91 102 103 104 104 106 106 107 105 112 100 76 72 58 68 66 62 55 60
328 309 284 266 249 241 236 234 236 241 261 288 306 319 338 12 32 43 61 66 72 72 70 72 76 91 109 112 111 112 112 107 102 103 98 82 70 55 68 69 67 53 46
332 326 308 286 261 245 233 226 225 225 232 251 282 330 30 52 71 80 82 84 81 80 72 69 81 101 104 107 118 119 117 112 106 102 97 87 70 62 62 54 72 64 54
326 329 327 312 282 253 237 223 214 214 214 211 212 141 101 106 114 104 102 94 91 93 90 82 84 88 92 90 92 98 112 120 117 109 103 98 87 78 73 68 67 61 43
310 316 326 326 308 277 247 223 212 207 198 192 182 154 137 139 138 123 110 103 99 98 99 96 94 89 91 97 87 79 76 89 112 123 117 117 114 114 107 93 82 75 61
299 303 311 320 320 303 263 232 216 200 194 188 180 166 155 158 150 132 116 105 98 88 89 102 108 101 105 110 101 87 77 70 88 101 113 114 113 118 107 108 110 95 72
287 290 297 305 313 313 289 249 222 201 193 187 179 171 167 168 163 148 132 117 104 87 76 83 105 105 115 119 111 105 93 81 79 86 88 85 81 79 102 106 94 84 60
278 278 282 288 297 305 304 272 228 206 198 186 180 179 175 173 173 161 145 133 119 107 85 74 84 105 115 121 121 120 113 108 108 94 75 61 63 60 59 74 104 104 87
271 272 276 277 284 293 305 292 238 210 196 185 180 179 179 174 173 169 160 146 139 131 122 106 94 103 103 102 106 113 122 120 107 100 89 77 68 62 58 60 65 90 96
269 268 269 271 279 294 304 305 261 218 197 186 177 173 177 173 171 177 169 151 145 140 138 130 116 108 102 99 100 109 110 107 106 100 93 83 76 69 66 69 73 73 73
270 268 267 269 269 273 286 305 288 232 202 187 181 179 178 175 177 176 169 154 146 133 138 136 125 112 101 97 102 105 103 105 106 105 102 91 79 70 84 84 70 72 68
264 266 265 265 266 267 271 286 290 259 213 188 184 181 177 175 174 171 166 153 140 127 128 125 112 104 99 98 92 87 88 100 111 112 106 95 89 89 83 84 77 65 60
259 261 262 259 258 262 264 268 275 267 239 199 189 181 177 181 183 172 166 165 160 152 141 129 124 124 119 112 102 96 97 102 101 106 114 111 102 95 86 79 80 76 68
259 259 256 252 252 253 262 281 270 262 249 221 200 183 183 179 167 167 168 164 156 150 146 153 155 155 155 153 144 132 124 118 116 124 124 120 116 112 107 97 91 92 84
248 251 251 249 249 250 253 270 292 285 246 215 196 183 173 161 159 165 163 155 153 152 155 167 169 170 170 168 165 159 155 146 139 139 134 131 128 125 126 125 122 112 99
244 250 247 242 245 247 248 256 274 277 243 197 188 177 162 159 160 155 141 133 154 174 176 176 177 178 178 178 178 173 160 152 153 155 149 145 144 142 144 150 152 145 131
241 242 240 239 243 245 246 254 265 266 236 189 164 168 162 153 148 149 150 162 173 183 184 181 181 181 184 186 184 179 173 171 171 169 167 162 160 156 158 165 166 159 153
235 243 243 239 244 246 248 254 262 257 223 186 173 166 153 143 151 165 176 176 178 183 184 182 182 183 185 186 183 180 179 180 180 182 180 176 174 176 176 176 178 177 180
228 239 251 252 243 244 249 258 259 244 207 181 172 166 165 168 170 175 183 182 181 183 182 180 180 182 183 182 181 183 185 189 192 194 191 187 183 185 190 189 191 192 187
221 228 235 245 248 245 251 259 252 229 191 172 164 162 166 168 171 175 181 185 185 183 181 178 180 183 182 181 182 185 191 196 198 200 201 198 195 194 191 193 197 197 198
218 229 237 243 245 248 257 261 245 201 174 162 159 162 171 171 172 176 180 182 180 178 175 175 179 184 187 187 186 188 194 201 203 200 201 203 204 202 199 202 203 203 209
219 227 234 241 246 251 257 259 218 172 160 156 159 164 171 172 173 175 177 175 175 175 174 177 183 189 190 190 194 199 205 205 202 203 202 205 207 208 207 209 211 213 216
221 226 230 235 241 246 255 238 179 157 154 155 159 164 169 170 170 172 171 169 170 173 177 179 183 190 195 196 198 204 206 200 198 202 204 209 213 212 211 214 217 218 217
224 225 228 231 232 238 236 192 161 154 154 155 158 162 166 168 168 168 166 166 169 173 177 184 190 192 195 201 208 208 204 202 202 202 205 210 215 218 216 220 222 220 220
Height
1483 1481 1479 1477 1475 1473 1470 1467 1463 1460 1457 1454 1452 1449 1445 1442 1440 1437 1435 1433 1432 1432 1432 1433 1434 1435 1437 1439 1441 1443 1445 1448 1451 1455 1457 1460 1462 1463 1463 1464 1464 1464 1464
1478 1476 1474 1472 1471 1469 1466 1463 1460 1458 1455 1452 1450 1447 1444 1441 1438 1435 1433 1432 1431 1430 1430 1431 1432 1434 1435 1437 1439 1442 1444 1447 1451 1454 1458 1461 1463 1464 1464 1464 1464 1464 1464
1472 1470 1468 1466 1465 1464 1462 1460 1457 1454 1452 1450 1447 1445 1443 1439 1437 1434 1432 1431 1430 1430 1430 1431 1432 1433 1435 1437 1439 1442 1445 1449 1453 1455 1458 1461 1464 1465 1465 1465 1466 1466 1465
1467 1464 1461 1459 1458 1457 1457 1455 1453 1451 1449 1447 1445 1443 1441 1439 1436 1434 1433 1431 1431 1431 1431 1432 1433 1434 1436 1439 1441 1444 1448 1452 1455 1458 1460 1463 1464 1466 1466 1467 1467 1467 1467
1462 1458 1454 1451 1450 1450 1450 1450 1449 1447 1446 1444 1443 1441 1440 1438 1437 1435 1434 1433 1432 1432 1433 1434 1436 1437 1439 1442 1445 1448 1451 1454 1457 1459 1462 1464 1466 1467 1467 1468 1469 1469 1469
1457 1453 1448 1444 1442 1441 1443 1444 1443 1442 1442 1441 1441 1440 1439 1438 1437 1436 1435 1434 1435 1435 1436 1438 1439 1441 1443 1446 1449 1452 1454 1456 1458 1461 1463 1465 1466 1468 1468 1469 1469 1470 1469
1453 1448 1444 1439 1435 1433 1434 1436 1437 1437 1437 1437 1437 1437 1437 1437 1437 1437 1437 1437 1438 1439 1441 1442 1443 1445 1447 1449 1452 1455 1457 1459 1461 1463 1464 1466 1468 1469 1469 1469 1470 1470 1470
1447 1443 1439 1435 1430 1427 1426 1428 1430 1431 1432 1433 1434 1435 1435 1436 1437 1438 1438 1439 1441 1443 1445 1446 1447 1449 1451 1453 1454 1456 1459 1461 1463 1464 1466 1467 1469 1470 1470 1470 1470 1470 1471
1441 1437 1434 1430 1425 1422 1419 1419 1421 1424 1426 1427 1429 1431 1433 1435 1437 1438 1440 1441 1443 1445 1447 1448 1450 1451 1452 1454 1455 1457 1459 1461 1463 1465 1467 1468 1469 1470 1470 1471 1471 1471 1472
1434 1431 1427 1424 1420 1416 1413 1412 1412 1415 1419 1422 1424 1427 1430 1432 1435 1438 1440 1442 1444 1446 1447 1449 1450 1451 1453 1454 1456 1458 1459 1462 1464 1466 1467 1469 1470 1470 1471 1471 1472 1472 1472
1425 1423 1420 1417 1414 1410 1407 1404 1403 1405 1410 1415 1418 1422 1426 1429 1433 1436 1439 1442 1444 1446 1448 1449 1451 1452 1454 1455 1457 1459 1460 1462 1465 1466 1468 1469 1470 1471 1471 1472 1473 1473 1473
1416 1413 1411 1409 1407 1404 1400 1397 1395 1396 1400 1406 1411 1416 1421 1426 1430 1434 1438 1441 1444 1446 1448 1450 1451 1453 1455 1456 1458 1460 1461 1464 1465 1467 1468 1470 1471 1472 1472 1473 1474 1474 1474
1406 1404 1403 1401 1399 1397 1394 1391 1389 1387 1389 1397 1403 1409 1415 1421 1426 1431 1436 1440 1443 1446 1448 1450 1452 1454 1456 1458 1459 1461 1463 1464 1466 1467 1469 1470 1471 1473 1474 1475 1475 1475 1475
1396 1395 1394 1393 1391 1390 1388 1385 1383 1380 1382 1387 1395 1401 1408 1415 1421 1427 1432 1437 1441 1445 1448 1450 1453 1455 1457 1459 1460 1462 1463 1465 1466 1468 1469 1471 1472 1474 1475 1476 1476 1477 1476
1387 1386 1386 1385 1384 1382 1381 1379 1376 1374 1375 1380 1387 1394 1401 1408 1415 1422 1427 1433 1438 1442 1446 1449 1452 1455 1458 1460 1461 1463 1464 1465 1467 1468 1470 1472 1473 1475 1476 1477 1477 1478 1477
1376 1376 1377 1377 1376 1375 1373 1372 1369 1368 1369 1374 1382 1389 1396 1403 1411 1418 1425 1431 1436 1440 1444 1447 1451 1454 1457 1459 1461 1463 1465 1466 1468 1469 1471 1473 1474 1475 1476 1477 1478 1479 1478
1366 1367 1368 1368 1368 1368 1367 1365 1363 1361 1362 1366 1376 1385 1392 1400 1407 1415 1422 1428 1433 1438 1442 1446 1449 1453 1456 1459 1461 1463 1465 1467 1468 1470 1472 1474 1475 1476 1477 1478 1479 1479 1479
1355 1357 1358 1360 1361 1361 1360 1359 1357 1356 1356 1360 1369 1380 1388 1396 1404 1411 1418 1424 1430 1435 1439 1443 1447 1451 1455 1458 1460 1463 1465 1467 1469 1470 1472 1474 1475 1476 1477 1478 1479 1479 1479
1345 1347 1350 1352 1353 1353 1353 1352 1351 1351 1352 1356 1364 1374 1384 1393 1401 1408 1414 1419 1424 1429 1434 1440 1444 1448 1453 1456 1459 1462 1464 1466 1468 1470 1472 1474 1475 1476 1477 1478 1478 1479 1479
1336 1339 1342 1344 1345 1346 1346 1346 1345 1345 1347 1351 1358 1367 1377 1386 1393 1401 1408 1414 1420 1425 1430 1436 1441 1446 1450 1454 1457 1460 1463 1465 1468 1470 1472 1473 1474 1475 1476 1477 1478 1478 1478
1328 1332 1335 1337 1339 1340 1339 1339 1338 1339 1342 1347 1354 1363 1372 1380 1388 1396 1402 1409 1415 1421 1427 1432 1437 1442 1447 1451 1454 1458 1461 1463 1466 1468 1470 1472 1473 1474 1475 1476 1476 1477 1477
1323 1326 1329 1331 1333 1334 1334 1333 1333 1334 1338 1344 1352 1360 1370 1377 1385 1392 1398 1405 1411 1418 1423 1429 1434 1439 1444 1448 1451 1455 1458 1461 1463 1466 1468 1470 1472 1473 1474 1474 1475 1475 1475
1318 1322 1324 1327 1328 1329 1329 1328 1328 1331 1336 1343 1350 1357 1366 1374 1382 1389 1395 1402 1408 1414 1420 1426 1431 1436 1440 1445 1449 1452 1455 1458 1460 1463 1465 1467 1469 1470 1471 1472 1472 1472 1473
1316 1318 1321 1323 1324 1325 1325 1325 1327 1331 1336 1342 1349 1356 1364 1372 1379 1387 1393 1399 1405 1411 1417 1422 1427 1432 1437 1441 1445 1448 1452 1455 1458 1460 1462 1464 1466 1467 1468 1468 1469 1469 1469
1313 1316 1318 1320 1321 1322 1323 1324 1327 1332 1337 1343 1349 1356 1364 1371 1378 1385 1392 1397 1403 1409 1414 1419 1424 1428 1433 1437 1442 1445 1448 1451 1454 1457 1459 1460 1462 1463 1463 1464 1464 1464 1465
1312 1314 1316 1318 1319 1321 1322 1324 1329 1333 1339 1345 1351 1357 1364 1371 1377 1384 1390 1395 1401 1406 1411 1416 1421 1425 1429 1434 1438 1442 1445 1448 1450 1453 1454 1456 1457 1458 1458 1459 1459 1459 1459